Regional Weather Roundup
Issued by NWS

Home | Current Version | Previous Version | Graphics & Text | Print | Product List | Glossary On
Versions: 1 2 3 4 5 6 7 8 9 10 11 12 13 14 15 16 17 18 19 20 21 22 23 24 25 26 27 28 29 30 31 32 33 34 35 36 37 38 39 40 41 42 43 44 45 46 47 48 49 50
000
ASUS43 KLSX 201459
RWRMO

WEATHER SUMMARY FOR MISSOURI
NATIONAL WEATHER SERVICE SPRINGFIELD MO
1000 AM CDT SAT SEP 20 2014

NOTE: "FAIR" INDICATES FEW OR NO CLOUDS BELOW 12,000 FEET WITH NO
       SIGNIFICANT WEATHER AND/OR OBSTRUCTIONS TO VISIBILITY.
       CURRENT SKY AND/OR WEATHER CONDITIONS ARE NOT AVAILABLE FOR
       CHILLICOTHE AND FARMINGTON.

MOZ001>031-035>038-043-044-053-054-201600-
...NORTHERN AND WESTERN MISSOURI...

CITY           SKY/WX    TMP DP  RH WIND       PRES   REMARKS
KANSAS CTY INT MOSUNNY   74  70  87 SW8       30.01R
KANSAS C DTWN  SUNNY     78  68  71 SW9       29.99R
LEE`S SUMMIT   SUNNY     75  68  78 SW12      30.03R
ST JOSEPH      CLOUDY    72  69  90 SW7       29.98R FOG
CHILLICOTHE      N/A     72  68  87 S8        29.98S
KIRKSVILLE     CLOUDY    68  66  93 S12       29.96F FOG

$$
MOZ066>068-077>081-088>096-101>105-201600-
...SOUTHWEST MISSOURI...

CITY           SKY/WX    TMP DP  RH WIND       PRES   REMARKS
SPRINGFIELD    SUNNY     74  68  81 S10       30.09R
JOPLIN         SUNNY     76  69  79 SW13      30.07R

$$
MOZ032>034-039>042-045>050-055>058-069>072-201600-
...CENTRAL MISSOURI...

CITY           SKY/WX    TMP DP  RH WIND       PRES   REMARKS
COLUMBIA       SUNNY     74  69  85 SW13      30.04R
JEFFERSON CITY MOSUNNY   74  67  78 VRB5      30.04R
ROLLA          SUNNY     74  67  78 SW13      30.05F
SEDALIA        SUNNY     76  68  76 SW14      30.03S
OSAGE BEACH    SUNNY     75  68  78 SW8       30.05S

$$
MOZ051-052-059>065-201600-
...EAST CENTRAL MISSOURI...

CITY           SKY/WX    TMP DP  RH WIND       PRES   REMARKS
ST LOUIS INTL  MOSUNNY   77  66  68 SW13G21   30.04S
SPIRIT OF STL  MOSUNNY   75  66  73 W8        30.03F
ST CHARLES     SUNNY     75  65  70 SW10      30.03S

$$
MOZ072>076-082>087-097>100-106>115-201600-
...SOUTH CENTRAL AND SOUTHEAST MISSOURI...

CITY           SKY/WX    TMP DP  RH WIND       PRES   REMARKS
CAPE GIRARDEAU SUNNY     76  69  79 SW9       30.08S
FARMINGTON     SUNNY     73  66  78 S6        30.10S
POPLAR BLUFF   SUNNY     75  66  73 SW6       30.07F
WEST PLAINS    SUNNY     75  67  76 VRB7      30.11S

$$



USA.gov is the U.S. government's official web portal to all federal, state and local government web resources and services.